APG104 RPVP-RPLC

Flight info

Callsign APG104
Flight time 1h 1m
Altitude 35000
Route NOMYO1E NOMYO M646 MIA W16 OLIVA OLIVA3P
Aircraft A20N/M-SDE2E3FGHIRWXY/LB1

Departure

Time 2026-04-25 04:44
Airport Puerto Princesa International Airport / PAF Antonio Bautista Air Base (RPVP)

Arrival

Time 2026-04-25 05:45
Airport Clark International Airport / Clark Air Base (RPLC)
Time Latitude Longitude Altitude Speed Heading
2026-04-25 04:30 9.74509 118.75064 73 ft 0 kts
2026-04-25 04:35 9.74507 118.75064 73 ft 1 kts
2026-04-25 04:36 9.74492 118.75063 73 ft 2 kts
2026-04-25 04:36 9.74477 118.75063 73 ft 2 kts
2026-04-25 04:36 9.74462 118.75062 73 ft 2 kts
2026-04-25 04:36 9.74447 118.75061 73 ft 2 kts
2026-04-25 04:37 9.74437 118.75061 73 ft 1 kts
2026-04-25 04:37 9.74422 118.75063 73 ft 2 kts 325°
2026-04-25 04:37 9.74412 118.75075 72 ft 2 kts 290°
2026-04-25 04:37 9.74410 118.75083 72 ft 1 kts 270°
2026-04-25 04:38 9.74410 118.75089 72 ft 0 kts 272°
2026-04-25 04:41 9.74411 118.75082 72 ft 4 kts 272°
2026-04-25 04:41 9.74415 118.75007 74 ft 14 kts 273°
2026-04-25 04:42 9.74420 118.74905 74 ft 15 kts 273°
2026-04-25 04:42 9.74425 118.74795 74 ft 15 kts 272°
2026-04-25 04:42 9.74389 118.74709 74 ft 12 kts 196°
2026-04-25 04:42 9.74303 118.74703 74 ft 12 kts 180°
2026-04-25 04:43 9.74261 118.74762 74 ft 4 kts 93°
2026-04-25 04:43 9.74261 118.74764 74 ft 0 kts 93°
2026-04-25 04:43 9.74252 118.74965 73 ft 70 kts 92°
2026-04-25 04:44 9.74218 118.75735 62 ft 144 kts 92°
2026-04-25 04:44 9.74172 118.76876 458 ft 170 kts 92°
2026-04-25 04:44 9.74123 118.78082 1197 ft 174 kts 91°
2026-04-25 04:44 9.74341 118.79215 2150 ft 169 kts 57°
2026-04-25 04:45 9.75341 118.79871 2776 ft 189 kts 17°
2026-04-25 04:45 9.76691 118.80112 3283 ft 206 kts 14°
2026-04-25 04:45 9.78167 118.80424 3721 ft 225 kts 16°
2026-04-25 04:45 9.79749 118.80802 4244 ft 241 kts 17°
2026-04-25 04:46 9.81400 118.81217 4987 ft 247 kts 17°
2026-04-25 04:46 9.83054 118.81642 5819 ft 249 kts 17°
2026-04-25 04:46 9.84725 118.82078 6631 ft 252 kts 17°
2026-04-25 04:46 9.86431 118.82524 7429 ft 255 kts 17°
2026-04-25 04:47 9.88145 118.82958 8195 ft 258 kts 14°
2026-04-25 04:47 9.89947 118.83203 8944 ft 264 kts
2026-04-25 04:47 9.91830 118.83221 9436 ft 280 kts
2026-04-25 04:47 9.93839 118.83164 9943 ft 293 kts
2026-04-25 04:48 9.95912 118.83093 10580 ft 302 kts 360°
2026-04-25 04:48 9.98083 118.83020 10939 ft 319 kts 360°
2026-04-25 04:48 10.00356 118.82947 11397 ft 331 kts 359°
2026-04-25 04:48 10.02648 118.82874 12097 ft 335 kts 359°
2026-04-25 04:49 10.04987 118.82803 12794 ft 338 kts 359°
2026-04-25 04:49 10.07353 118.82729 13427 ft 341 kts 359°
2026-04-25 04:49 10.09760 118.82656 14102 ft 344 kts 359°
2026-04-25 04:49 10.12172 118.82619 14742 ft 346 kts
2026-04-25 04:50 10.14500 118.83227 15332 ft 347 kts 28°
2026-04-25 04:50 10.15342 118.83723 15583 ft 347 kts 36°
2026-04-25 04:50 10.16504 118.84746 15976 ft 347 kts 47°
2026-04-25 04:50 10.18147 118.86570 16583 ft 350 kts 48°
2026-04-25 04:51 10.19796 118.88419 17141 ft 353 kts 48°
2026-04-25 04:51 10.21487 118.90305 17724 ft 356 kts 48°
2026-04-25 04:51 10.23161 118.92158 18262 ft 359 kts 48°
2026-04-25 04:51 10.24903 118.94080 18794 ft 363 kts 48°
2026-04-25 04:52 10.26636 118.95989 19308 ft 367 kts 48°
2026-04-25 04:52 10.28386 118.97916 19832 ft 370 kts 48°
2026-04-25 04:52 10.29555 118.99201 20169 ft 372 kts 48°
2026-04-25 04:52 10.31927 119.01811 20833 ft 377 kts 48°
2026-04-25 04:53 10.33162 119.03110 21169 ft 380 kts 44°
2026-04-25 04:53 10.36026 119.05352 21826 ft 385 kts 32°
2026-04-25 04:53 10.38512 119.06683 22332 ft 389 kts 26°
2026-04-25 04:53 10.41107 119.07886 22842 ft 393 kts 25°
2026-04-25 04:54 10.43668 119.09051 23338 ft 396 kts 25°
2026-04-25 04:54 10.46258 119.10229 23833 ft 399 kts 25°
2026-04-25 04:54 10.48918 119.11443 24327 ft 403 kts 25°
2026-04-25 04:54 10.51552 119.12650 24801 ft 406 kts 25°
2026-04-25 04:55 10.54215 119.13873 25274 ft 409 kts 25°
2026-04-25 04:55 10.56834 119.15077 25724 ft 412 kts 24°
2026-04-25 04:55 10.59544 119.16326 26150 ft 415 kts 24°
2026-04-25 04:55 10.62212 119.17554 26576 ft 418 kts 24°
2026-04-25 04:56 10.64927 119.18805 27010 ft 421 kts 24°
2026-04-25 04:56 10.67655 119.20062 27411 ft 425 kts 24°
2026-04-25 04:56 10.70420 119.21336 27813 ft 427 kts 24°
2026-04-25 04:56 10.73197 119.22616 28205 ft 430 kts 24°
2026-04-25 04:57 10.75968 119.23893 28598 ft 432 kts 24°
2026-04-25 04:57 10.78765 119.25182 28978 ft 434 kts 24°
2026-04-25 04:57 10.81564 119.26473 29314 ft 437 kts 24°
2026-04-25 04:57 10.84423 119.27792 29635 ft 441 kts 24°
2026-04-25 04:58 10.87287 119.29112 29948 ft 444 kts 24°
2026-04-25 04:58 10.90179 119.30447 30262 ft 446 kts 24°
2026-04-25 04:58 10.93087 119.31789 30587 ft 448 kts 24°
2026-04-25 04:58 10.95959 119.33115 30988 ft 448 kts 24°
2026-04-25 04:59 10.98853 119.34453 31399 ft 448 kts 24°
2026-04-25 04:59 11.01774 119.35803 31790 ft 448 kts 24°
2026-04-25 04:59 11.04722 119.37166 32172 ft 448 kts 24°
2026-04-25 04:59 11.07683 119.38535 32554 ft 449 kts 24°
2026-04-25 05:00 11.10630 119.39898 32965 ft 448 kts 24°
2026-04-25 05:00 11.13543 119.41246 33402 ft 448 kts 24°
2026-04-25 05:00 11.16508 119.42619 33778 ft 449 kts 24°
2026-04-25 05:00 11.19471 119.43989 34112 ft 450 kts 24°
2026-04-25 05:01 11.22363 119.45327 34457 ft 451 kts 24°
2026-04-25 05:01 11.25319 119.46697 34753 ft 453 kts 24°
2026-04-25 05:01 11.28314 119.48083 34990 ft 455 kts 24°
2026-04-25 05:02 11.34279 119.50846 34996 ft 455 kts 24°
2026-04-25 05:02 11.40267 119.53621 34992 ft 455 kts 24°
2026-04-25 05:03 11.46211 119.56377 34986 ft 455 kts 24°
2026-04-25 05:03 11.52048 119.59085 34983 ft 455 kts 24°
2026-04-25 05:04 11.57874 119.61790 34982 ft 456 kts 24°
2026-04-25 05:04 11.63771 119.64529 34982 ft 456 kts 24°
2026-04-25 05:05 11.69618 119.67246 34980 ft 456 kts 24°
2026-04-25 05:05 11.75410 119.69974 34980 ft 457 kts 25°
2026-04-25 05:06 11.81283 119.72762 34982 ft 457 kts 25°
2026-04-25 05:06 11.87148 119.75548 34979 ft 457 kts 25°
2026-04-25 05:07 11.93047 119.78349 34980 ft 458 kts 25°
2026-04-25 05:07 11.98896 119.81128 34989 ft 458 kts 25°
2026-04-25 05:08 12.04821 119.83944 34982 ft 459 kts 24°
2026-04-25 05:08 12.10766 119.86770 34970 ft 458 kts 25°
2026-04-25 05:09 12.16661 119.89574 34970 ft 458 kts 24°
2026-04-25 05:09 12.22485 119.92345 34969 ft 458 kts 25°
2026-04-25 05:10 12.28396 119.95160 34977 ft 458 kts 24°
2026-04-25 05:10 12.34266 119.97958 34979 ft 458 kts 24°
2026-04-25 05:11 12.40083 120.00729 34971 ft 458 kts 24°
2026-04-25 05:11 12.45954 120.03529 34966 ft 459 kts 24°
2026-04-25 05:12 12.54709 120.07707 34975 ft 459 kts 24°
2026-04-25 05:12 12.60636 120.10536 34976 ft 458 kts 24°
2026-04-25 05:13 12.66492 120.13333 34975 ft 457 kts 24°
2026-04-25 05:13 12.72371 120.16145 34977 ft 458 kts 24°
2026-04-25 05:14 12.78186 120.18923 34975 ft 458 kts 24°
2026-04-25 05:15 12.86952 120.23119 34983 ft 458 kts 24°
2026-04-25 05:15 12.92797 120.25917 34984 ft 459 kts 24°
2026-04-25 05:16 12.98776 120.28783 34987 ft 458 kts 24°
2026-04-25 05:16 13.04588 120.31569 34991 ft 458 kts 24°
2026-04-25 05:17 13.10401 120.34356 34985 ft 458 kts 24°
2026-04-25 05:17 13.16189 120.37135 34985 ft 458 kts 24°
2026-04-25 05:18 13.22017 120.39934 34984 ft 459 kts 24°
2026-04-25 05:18 13.27871 120.42746 34984 ft 459 kts 24°
2026-04-25 05:19 13.33709 120.45551 34996 ft 459 kts 24°
2026-04-25 05:19 13.39648 120.48405 35009 ft 459 kts 24°
2026-04-25 05:20 13.45470 120.51205 35029 ft 458 kts 24°
2026-04-25 05:20 13.51256 120.53993 35039 ft 458 kts 24°
2026-04-25 05:21 13.57123 120.56819 35027 ft 458 kts 24°
2026-04-25 05:21 13.62904 120.59604 35011 ft 459 kts 24°
2026-04-25 05:22 13.68754 120.62423 34990 ft 460 kts 24°
2026-04-25 05:22 13.74542 120.65215 34978 ft 459 kts 24°
2026-04-25 05:23 13.80410 120.68050 34241 ft 461 kts 24°
2026-04-25 05:23 13.83406 120.69499 33009 ft 472 kts 24°
2026-04-25 05:23 13.86453 120.70972 31909 ft 480 kts 24°
2026-04-25 05:23 13.89546 120.72466 30933 ft 484 kts 23°
2026-04-25 05:24 13.92673 120.73977 29748 ft 491 kts 23°
2026-04-25 05:24 13.95837 120.75504 29132 ft 483 kts 23°
2026-04-25 05:24 13.98889 120.76981 28691 ft 474 kts 23°
2026-04-25 05:24 14.01939 120.78457 28266 ft 464 kts 23°
2026-04-25 05:25 14.04887 120.79883 27907 ft 454 kts 23°
2026-04-25 05:25 14.07774 120.81280 27434 ft 448 kts 23°
2026-04-25 05:25 14.10656 120.82674 26473 ft 455 kts 23°
2026-04-25 05:25 14.13556 120.84075 25129 ft 469 kts 24°
2026-04-25 05:26 14.16539 120.85516 23648 ft 484 kts 24°
2026-04-25 05:26 14.19616 120.87006 22427 ft 489 kts 24°
2026-04-25 05:26 14.22698 120.88501 22012 ft 475 kts 24°
2026-04-25 05:26 14.25642 120.89931 21761 ft 459 kts 24°
2026-04-25 05:27 14.28510 120.91325 21516 ft 445 kts 24°
2026-04-25 05:27 14.31293 120.92677 21280 ft 431 kts 24°
2026-04-25 05:27 14.33975 120.93980 21016 ft 419 kts 24°
2026-04-25 05:27 14.36600 120.95255 20777 ft 407 kts 24°
2026-04-25 05:28 14.39147 120.96493 20533 ft 397 kts 24°
2026-04-25 05:28 14.41572 120.97671 20292 ft 388 kts 24°
2026-04-25 05:28 14.44028 120.98865 20052 ft 386 kts 24°
2026-04-25 05:28 14.46482 121.00056 19811 ft 385 kts 24°
2026-04-25 05:29 14.48869 121.01048 19553 ft 380 kts 11°
2026-04-25 05:29 14.51493 121.01133 19294 ft 373 kts 347°
2026-04-25 05:29 14.53870 121.00232 19038 ft 367 kts 327°
2026-04-25 05:29 14.55923 120.98832 18746 ft 364 kts 324°
2026-04-25 05:30 14.58032 120.97350 18365 ft 362 kts 324°
2026-04-25 05:30 14.60134 120.95888 17956 ft 360 kts 324°
2026-04-25 05:30 14.62205 120.94465 17554 ft 357 kts 325°
2026-04-25 05:30 14.64288 120.93043 17153 ft 354 kts 325°
2026-04-25 05:31 14.66336 120.91651 16731 ft 352 kts 325°
2026-04-25 05:31 14.68410 120.90247 16281 ft 350 kts 325°
2026-04-25 05:31 14.70443 120.88869 15815 ft 350 kts 325°
2026-04-25 05:31 14.72497 120.87476 15330 ft 350 kts 325°
2026-04-25 05:32 14.74559 120.86079 14823 ft 349 kts 325°
2026-04-25 05:32 14.76574 120.84713 14344 ft 348 kts 326°
2026-04-25 05:32 14.78621 120.83324 13896 ft 347 kts 325°
2026-04-25 05:32 14.80622 120.81966 13435 ft 345 kts 325°
2026-04-25 05:33 14.82640 120.80595 13003 ft 344 kts 325°
2026-04-25 05:33 14.84693 120.79200 12501 ft 343 kts 325°
2026-04-25 05:33 14.86689 120.77843 12037 ft 341 kts 326°
2026-04-25 05:33 14.88656 120.76506 11587 ft 339 kts 326°
2026-04-25 05:34 14.90649 120.75151 11222 ft 338 kts 326°
2026-04-25 05:34 14.92631 120.73803 10755 ft 336 kts 326°
2026-04-25 05:34 14.94649 120.72616 10308 ft 334 kts 336°
2026-04-25 05:34 14.96887 120.71940 10090 ft 323 kts 349°
2026-04-25 05:35 14.99061 120.71619 9986 ft 310 kts 352°
2026-04-25 05:35 15.01197 120.71353 9802 ft 301 kts 352°
2026-04-25 05:35 15.03270 120.71094 9443 ft 299 kts 352°
2026-04-25 05:35 15.05342 120.70826 9088 ft 295 kts 352°
2026-04-25 05:36 15.07394 120.70554 8736 ft 292 kts 352°
2026-04-25 05:36 15.09401 120.70287 8547 ft 283 kts 352°
2026-04-25 05:36 15.11388 120.70019 8136 ft 284 kts 353°
2026-04-25 05:36 15.13338 120.69756 7745 ft 283 kts 353°
2026-04-25 05:37 15.15296 120.69556 7382 ft 281 kts 356°
2026-04-25 05:37 15.17246 120.69392 7026 ft 278 kts 356°
2026-04-25 05:37 15.19192 120.69232 6685 ft 275 kts 356°
2026-04-25 05:37 15.21096 120.69076 6348 ft 273 kts 356°
2026-04-25 05:38 15.22996 120.68964 5996 ft 270 kts
2026-04-25 05:38 15.24864 120.69263 5634 ft 267 kts 18°
2026-04-25 05:38 15.26604 120.69896 5295 ft 264 kts 22°
2026-04-25 05:38 15.28313 120.70586 4959 ft 262 kts 23°
2026-04-25 05:39 15.30012 120.71277 4625 ft 259 kts 22°
2026-04-25 05:39 15.31724 120.71933 4255 ft 258 kts 16°
2026-04-25 05:39 15.33530 120.71948 3871 ft 262 kts 344°
2026-04-25 05:39 15.35111 120.71007 3553 ft 263 kts 315°
2026-04-25 05:40 15.36038 120.69460 3473 ft 250 kts 288°
2026-04-25 05:40 15.36459 120.67769 3474 ft 233 kts 283°
2026-04-25 05:40 15.36801 120.66165 3457 ft 217 kts 282°
2026-04-25 05:40 15.36813 120.64646 3512 ft 202 kts 252°
2026-04-25 05:41 15.36080 120.63515 3478 ft 179 kts 220°
2026-04-25 05:41 15.35086 120.62841 3301 ft 167 kts 204°
2026-04-25 05:41 15.34052 120.62363 3082 ft 158 kts 199°
2026-04-25 05:41 15.33022 120.61948 2894 ft 154 kts 197°
2026-04-25 05:42 15.32054 120.61575 2686 ft 144 kts 195°
2026-04-25 05:42 15.31092 120.61226 2515 ft 145 kts 198°
2026-04-25 05:42 15.30152 120.60848 2344 ft 145 kts 201°
2026-04-25 05:42 15.29204 120.60458 2172 ft 144 kts 202°
2026-04-25 05:43 15.28264 120.60076 1995 ft 144 kts 202°
2026-04-25 05:43 15.27321 120.59701 1814 ft 145 kts 202°
2026-04-25 05:43 15.26369 120.59323 1632 ft 145 kts 203°
2026-04-25 05:43 15.25418 120.58946 1447 ft 145 kts 203°
2026-04-25 05:44 15.24499 120.58579 1267 ft 143 kts 205°
2026-04-25 05:44 15.23568 120.58213 1080 ft 141 kts 204°
2026-04-25 05:44 15.22636 120.57849 909 ft 141 kts 202°
2026-04-25 05:44 15.21730 120.57488 735 ft 141 kts 203°
2026-04-25 05:45 15.20817 120.57126 564 ft 140 kts 203°
2026-04-25 05:45 15.19931 120.56773 422 ft 139 kts 203°
2026-04-25 05:45 15.19164 120.56454 432 ft 81 kts 200°
2026-04-25 05:45 15.18835 120.56337 441 ft 35 kts 200°
2026-04-25 05:46 15.18636 120.56259 447 ft 28 kts 201°
2026-04-25 05:46 15.18463 120.56191 452 ft 23 kts 200°
2026-04-25 05:46 15.18320 120.56136 455 ft 20 kts 200°
2026-04-25 05:46 15.18195 120.56086 457 ft 15 kts 201°
2026-04-25 05:47 15.18144 120.56016 460 ft 10 kts 277°
2026-04-25 05:47 15.18163 120.55954 462 ft 7 kts 289°
2026-04-25 05:47 15.18174 120.55920 464 ft 2 kts 289°
2026-04-25 05:47 15.18177 120.55913 464 ft 0 kts 292°
2026-04-25 05:48 15.18185 120.55878 466 ft 4 kts 299°
2026-04-25 05:48 15.18205 120.55838 469 ft 8 kts 294°
2026-04-25 05:48 15.18232 120.55769 472 ft 12 kts 291°
2026-04-25 05:48 15.18271 120.55669 478 ft 15 kts 291°
2026-04-25 05:49 15.18308 120.55567 483 ft 14 kts 292°
2026-04-25 05:49 15.18344 120.55468 488 ft 14 kts 289°
2026-04-25 05:49 15.18400 120.55432 490 ft 12 kts 33°
2026-04-25 05:49 15.18504 120.55477 485 ft 19 kts 18°
2026-04-25 05:50 15.18613 120.55463 484 ft 13 kts 291°
2026-04-25 05:50 15.18644 120.55373 488 ft 13 kts 291°
2026-04-25 05:50 15.18679 120.55284 493 ft 13 kts 291°
2026-04-25 05:50 15.18707 120.55211 496 ft 8 kts 290°
2026-04-25 05:51 15.18722 120.55164 498 ft 4 kts 274°
2026-04-25 05:51 15.18717 120.55139 499 ft 3 kts 258°
2026-04-25 05:51 15.18721 120.55090 501 ft 8 kts 288°
2026-04-25 05:51 15.18736 120.55048 503 ft 3 kts 289°
2026-04-25 05:52 15.18740 120.55039 503 ft 0 kts 290°
2026-04-25 05:52 15.18739 120.55039 503 ft 0 kts 290°
2026-04-25 05:52 15.18743 120.55028 503 ft 5 kts 288°
2026-04-25 05:52 15.18745 120.55022 503 ft 0 kts 281°
2026-04-25 05:53 15.18745 120.55025 503 ft 0 kts 284°
2026-04-25 05:53 15.18744 120.55026 503 ft 0 kts 288°
2026-04-25 05:53 15.18744 120.55027 503 ft 0 kts 288°